Location: Ferma
(41.9500°N, 44.5167°E)
Time: 20:25:36
(UTC+00:00)

BREEZE-M DEB (TANK) - Pass Details

Date: 05 June 2022
Orbit: 338 x 14778 km, 49.6° (Epoch: 25 June)

Event Time Altitude Azimuth Distance (km) Brightness Sun altitude
Rises 15:12:34 0° 305° (NW) 15,649 12.0 12.7°
Reaches altitude 10° 15:26:48 10° 306° (NW) 16,270 12.5 10.3°
Maximum altitude 17:26:34 52° 260° (W) 12,245 10.0 -8.7°
Drops below altitude 10° 18:11:11 10° 188° (S) 7,631 8.4 -14.5°
Sets 18:15:14 0° 181° (S) 7,672 8.4 -15.0°
